Regional Weather Roundup
Issued by NWS Binghamton, NY

Home | Current Version | Previous Version | Text Only | Print | Product List | Glossary On
Versions: 1 2 3 4 5 6 7 8 9 10 11 12 13 14 15 16 17 18 19 20 21 22 23 24 25 26 27
000
ASUS41 KBGM 231310
RWRBGM

REGIONAL WEATHER ROUNDUP
NATIONAL WEATHER SERVICE BINGHAMTON NY
900 AM EDT SAT SEP 23 2017

Note: "fair" indicates few or no clouds below 12,000 feet with no
significant weather and/or obstructions to visibility.

* = Station(s) that does not report precipitation, such as rain,
snow, etc, also no thunder or fog.

NYZ009-015>018-022>025-036-037-044>046-055>057-062-231400
...Central New York...

CITY           SKY/WX    TMP DP  RH WIND       PRES   REMARKS
Binghamton     SUNNY     61  57  87 N5        30.16R
Cortland       FAIR      55  55 100 CALM      30.18R
Dansville      SUNNY     60  52  74 SE6       30.18S
Elmira         MOSUNNY   58  57  97 SW6       30.17R
Seneca Falls   SUNNY     63  61  94 CALM      30.16S
Ithaca         SUNNY     62  58  86 CALM      30.18R
Hamilton       SUNNY     57  54  88 CALM      30.17S
Hornell        SUNNY     57  54  88 S3        30.23S
Monticello     SUNNY     64  53  67 W3        30.15R
Oneonta        SUNNY     57 N/A N/A CALM      30.17R
Penn Yan       SUNNY     63  56  78 SW5       30.17R
Rome           PTSUNNY   58  54  86 CALM      30.16R
Sidney         FOG       50  50 100 CALM      30.18R VSB 3/4
Syracuse       MOSUNNY   62  59  90 SE5       30.13R
$$

PAZ038>040-043-044-047-048-072-231400
...Northeast Pennsylvania...

CITY           SKY/WX    TMP DP  RH WIND       PRES   REMARKS
Hazleton       SUNNY     64  55  72 NW5       30.19R
Scranton       SUNNY     61  56  83 W3        30.16R
$$
&&
KEY
WCI = Wind Chill Index
VSB = Visibility
HX  = Heat Index
$$




USA.gov is the U.S. government's official web portal to all federal, state and local government web resources and services.